User: anonymous   Login
Location: Unspecified
(0.0000°N, 0.0000°E)
Time: 08:41:14
(UTC+01:00)
Language:

CZ-4 DEB - Orbit

View from above orbital plane
View from above orbital plane
View from above satellite
View from above satellite

Ground track
Ground track

The orbit data is extracted from the following two-line orbital elements,

1 29508U 06046D   17059.13747508  .00123320  00000-0  77388-3 0  9994
2 29508  97.6062 124.6403 0000396 140.1344 219.9950 15.76401939568897
Epoch (UTC): 28 February 2017 03:17:57
Eccentricity: 0.0000396
inclination: 97.6062°
perigee height: 340 km
apogee height: 341 km
right ascension of ascending node: 124.6403°
argument of perigee: 140.1344°
revolutions per day: 15.76401939
mean anomaly at epoch: 219.9950°
orbit number at epoch: 56889

The dashed part of the orbit path shows where the satellite is in the earth's shadow,  

DLR